TimeGMT,TemperatureF,Dew PointF,Humidity,Sea Level PressureIn,VisibilityMPH,Wind Direction,Wind SpeedMPH,Gust SpeedMPH,PrecipitationIn,Events,Conditions,WindDirDegrees,DateUTC
12:00 AM,80,68,58,29.99,25,East,18.4,,,,Partly Cloudy,80,2012-12-11 00:00:00
12:00 AM,80.6,68.0,65,29.98,6.2,East,18.4,-,N/A,,Partly Cloudy,80,2012-12-11 00:00:00
1:00 AM,80.6,68.0,65,30.01,6.2,East,11.5,-,N/A,,Scattered Clouds,90,2012-12-11 01:00:00
2:00 AM,78.8,68.0,69,30.01,6.2,East,15.0,27.6,N/A,,Partly Cloudy,90,2012-12-11 02:00:00
3:00 AM,80,69,62,30.01,16,East,12.7,,,Rain,Light Rain Showers,90,2012-12-11 03:00:00
3:00 AM,78.8,68.0,69,30.01,6.2,East,12.7,-,N/A,Rain,Light Rain Showers,90,2012-12-11 03:00:00
4:00 AM,78.8,69.8,74,29.98,6.2,East,13.8,-,N/A,,Partly Cloudy,80,2012-12-11 04:00:00
5:00 AM,78.8,69.8,74,29.98,6.2,East,13.8,-,N/A,Rain,Light Rain Showers,80,2012-12-11 05:00:00
6:00 AM,79,70,66,29.96,19,ESE,15.0,,,Rain,Light Rain Showers,110,2012-12-11 06:00:00
6:00 AM,78.8,69.8,74,29.95,6.2,East,15.0,-,N/A,Rain,Light Rain Showers,90,2012-12-11 06:00:00
7:00 AM,78.8,69.8,74,29.95,6.2,East,15.0,-,N/A,,Mostly Cloudy,90,2012-12-11 07:00:00
8:00 AM,78.8,68.0,69,29.95,6.2,East,16.1,-,N/A,,Scattered Clouds,90,2012-12-11 08:00:00
9:00 AM,78,69,68,29.95,11,East,15.0,,,Rain,Light Rain Showers,90,2012-12-11 09:00:00
9:00 AM,77.0,69.8,78,29.95,6.2,East,15.0,-,N/A,Rain,Light Rain Showers,90,2012-12-11 09:00:00
10:00 AM,78.8,68.0,69,29.98,6.2,East,17.3,-,N/A,,Mostly Cloudy,80,2012-12-11 10:00:00
11:00 AM,78.8,69.8,74,29.98,6.2,East,15.0,-,N/A,,Scattered Clouds,80,2012-12-11 11:00:00
12:00 PM,80,69,62,30.01,22,East,16.1,,,,Partly Cloudy,80,2012-12-11 12:00:00
12:00 PM,80.6,69.8,70,30.01,6.2,ENE,16.1,-,N/A,,Partly Cloudy,70,2012-12-11 12:00:00
1:00 PM,80.6,69.8,70,30.01,6.2,ENE,20.7,-,N/A,,Scattered Clouds,60,2012-12-11 13:00:00
1:28 PM,80.6,69.8,70,30.01,3.1,ENE,20.7,34.5,N/A,Rain,Rain Showers,70,2012-12-11 13:28:00
2:00 PM,80.6,71.6,74,30.01,6.2,East,18.4,-,N/A,,Scattered Clouds,90,2012-12-11 14:00:00
3:00 PM,82,71,62,30.02,25,East,19.6,,,,Partly Cloudy,90,2012-12-11 15:00:00
3:00 PM,82.4,71.6,70,30.01,6.2,East,19.6,-,N/A,,Scattered Clouds,90,2012-12-11 15:00:00
4:00 PM,82.4,71.6,70,30.01,6.2,East,13.8,-,N/A,,Scattered Clouds,90,2012-12-11 16:00:00
5:00 PM,82.4,71.6,70,29.98,6.2,East,11.5,-,N/A,,Mostly Cloudy,90,2012-12-11 17:00:00
6:00 PM,84,70,55,29.97,19,East,21.9,,,,Partly Cloudy,90,2012-12-11 18:00:00
6:00 PM,84.2,69.8,62,29.95,6.2,East,12.7,-,N/A,,Scattered Clouds,90,2012-12-11 18:00:00
7:00 PM,82.4,69.8,66,29.95,6.2,East,13.8,-,N/A,,Partly Cloudy,80,2012-12-11 19:00:00
8:00 PM,80.6,71.6,74,29.95,6.2,East,15.0,-,N/A,,Scattered Clouds,80,2012-12-11 20:00:00
9:00 PM,80,72,70,29.97,9,East,20.7,,,Rain,Light Rain Showers,100,2012-12-11 21:00:00
9:00 PM,80.6,71.6,74,29.95,6.2,East,18.4,-,N/A,,Scattered Clouds,80,2012-12-11 21:00:00
10:00 PM,80.6,71.6,74,29.98,6.2,ENE,16.1,-,N/A,,Scattered Clouds,70,2012-12-11 22:00:00
11:00 PM,80.6,69.8,70,29.98,6.2,East,17.3,-,N/A,,Scattered Clouds,80,2012-12-11 23:00:00